Погода в Лучесе

Россия / Смоленская область     54°24′23″N   32°29′35″E
темп.,
°C
ветер,
м/с
пор.,
м/с
влажн.,
%
обл.,
%
осадки,
мм/ч
давл.,
гПа
погр.,
м
2 декабря, чт
чт200:00−6зюз4109595 0.1 1000337
03:00−4зюз4685100 0.2 1001541
06:00−6ю499695 0.0 1001268
09:00−4ю61392100 0.0 999534
12:00−3ю81696100 1.4 996688
15:000ююз71596100 2.9 995624
18:00+1ююз615100100 0.1 995611
21:00+2ююз71610097 0.1 996540
3 декабря, пт
пт300:00+2юз61497100 0.1 997590
03:00+2юз81380100 0.1 998657
06:000юз61491100 0.0 999531
09:00−2юз41093100 0.0 1000309
12:000юз51091100 0.0 1001486
15:00−1юз3796100 1.1 1001433
18:00−1зюз5995100 0.6 1002497
21:00−1зюз61191100 0.6 1002670
4 декабря, сб
сб400:00−3зюз613895 0.0 1004488
03:00−4юз61391100 0.0 1005443
06:00−4зюз6129397 0.0 1006619
09:00−3з6987100 0.1 1008936
12:00−2з5982100 0.1 10101003
15:00−2зюз478647 0.1 1011851
18:00−5ююз38955 0.0 1013160
21:00−5ююз379582 0.0 1013156
5 декабря, вс
вс500:00−2ююз3693100 0.0 1014269
03:00−3ю3696100 0.0 1015219
06:00−3ююв3695100 0.0 1015180
09:00−4юв3895100 0.0 1016208
12:00−2ююв51094100 0.0 1016344
15:00−1юв41091100 0.0 1015442
18:00−2юв4992100 0.0 1017291
21:00−2вюв51090100 0.0 1016351
6 декабря, пн
пн600:00−2вюв51188100 0.0 1017405
03:00−2вюв51189100 0.0 1016462
06:00−3вюв61297100 1.1 1015567
09:00−2юв5109691 2.0 1016441
12:00−2юв4797100 0.4 1017355
15:00−1ююв3596100 0.8 1017316
18:00−3юв2399100 0.1 101749
21:00−2ююв2398100 0.2 1017121